This is the latest recevied weather packets stored in our database for station/object N4CRH-13. If no packets are shown the sender has not sent any weather packets the latest 10 day(s).
| Time | Temp. | Humidity | Pressure | Rain* | Wind** | Luminosity | Snow |
|---|---|---|---|---|---|---|---|
| 1777858461 | 15° C | 27% | 1291.5 hPa | 0 mm | - | 4 W/m² | - |
| 1777858156 | 15° C | 28% | 1291.7 hPa | 0 mm | - | 5 W/m² | - |
| 1777857855 | 15.56° C | 27% | 1291.7 hPa | 0 mm | - | 8 W/m² | - |
| 1777857552 | 15.56° C | 27% | 1291.5 hPa | 0 mm | - | 12 W/m² | - |
| 1777857249 | 15° C | 36% | 1291.4 hPa | 0 mm | - | 17 W/m² | - |
| 1777856944 | 15.56° C | 27% | 1291.5 hPa | 0 mm | - | 25 W/m² | - |
| 1777856640 | 15.56° C | 25% | 1291.3 hPa | 0 mm | - | 32 W/m² | - |
| 1777856336 | 16.11° C | 27% | 1291.3 hPa | 0 mm | - | 36 W/m² | - |
| 1777856033 | 16.67° C | 24% | 1291.2 hPa | 0 mm | - | 38 W/m² | - |
| 1777855731 | 16.67° C | 21% | 1291.4 hPa | 0 mm | - | 44 W/m² | - |
| 1777855429 | 16.11° C | 23% | 1291.4 hPa | 0 mm | - | 49 W/m² | - |
| 1777855125 | 16.11° C | 25% | 1291.5 hPa | 0 mm | - | 45 W/m² | - |
| 1777854822 | 16.11° C | 24% | 1291.4 hPa | 0 mm | - | 38 W/m² | - |
| 1777854518 | 16.11° C | 28% | 1291.5 hPa | 0 mm | - | 31 W/m² | - |
| 1777854215 | 16.67° C | 29% | 1291.4 hPa | 0 mm | - | 32 W/m² | - |
| 1777853913 | 16.67° C | 26% | 1291.2 hPa | 0 mm | - | 40 W/m² | - |
| 1777853610 | 16.67° C | 25% | 1291.2 hPa | 0 mm | - | 52 W/m² | - |
| 1777853307 | 16.67° C | 24% | 1291.1 hPa | 0 mm | - | 67 W/m² | - |
| 1777853004 | 17.22° C | 24% | 1291.3 hPa | 0 mm | - | 79 W/m² | - |
| 1777852701 | 17.22° C | 22% | 1291.1 hPa | 0 mm | - | 93 W/m² | - |
| 1777852399 | 17.22° C | 22% | 1291.2 hPa | 0 mm | - | 106 W/m² | - |
| 1777852096 | 17.78° C | 22% | 1291.2 hPa | 0 mm | - | 119 W/m² | - |
| 1777851794 | 17.78° C | 24% | 1291.4 hPa | 0 mm | - | 151 W/m² | - |
| 1777851492 | 17.78° C | 21% | 1291.7 hPa | 0 mm | - | 150 W/m² | - |
| 1777851187 | 17.78° C | 22% | 1291.4 hPa | 0 mm | - | 112 W/m² | - |
* Rain latest hour (hover to see other rain measurements)
** Current wind speed in m/s (hover to see current wind gust speed)